Athens, GA

8:15 PM EDT on June 23, 2017 (GMT -0400)
Athens / Epps

Weather History for KAHN - January, 2014

Change the Weather History Date:

Friday, January 24, 2014

  Actual Average Record
Temperature  
Mean Temperature 23 °F 44 °F  
Max Temperature 34 °F 54 °F 78 °F (1927)
Min Temperature 12 °F 33 °F 4 °F (1963)
Degree Days  
Heating Degree Days 42 21  
Month to date heating degree days 656 523  
Since 1 July heating degree days 1757 1613  
Moisture  
Dew Point -4 °F    
Average Humidity 35    
Maximum Humidity 53    
Minimum Humidity 16    
Precipitation  
Precipitation 0.00 in 0.14 in 3.15 in (1885)
Month to date precipitation 4.56 3.06  
Year to date precipitation 4.56 3.06  
Snow  
Snow 0.00 in 0.00 in 0.00 in (2002)
Month to date snowfall 0.0 1.1  
Since 1 July snowfall 0.0 1.2  
Snow Depth 0.00 in    
Sea Level Pressure  
Sea Level Pressure 30.51 in    
Wind  
Wind Speed 5 mph (NW)    
Max Wind Speed 18 mph    
Max Gust Speed 24 mph    
Visibility 10 miles    
Events      
T = Trace of Precipitation, MM = Missing Value Source: NWS Daily Summary

Daily Weather History Graph

Daily Weather History Graph

Search for Another Location

Airport or City:

Trip Planner

Search our weather history database for the weather conditions in past years. The results will help you decide how hot, cold, wet, or windy it might be!

Date:

Astronomy

Jan. 24, 2014 Rise Set
Actual Time 7:35 AM EST 5:56 PM EST
Civil Twilight 7:08 AM EST 6:22 PM EST
Nautical Twilight 6:38 AM EST 6:53 PM EST
Astronomical Twilight 6:08 AM EST 7:22 PM EST
Moon 1:05 AM EST 12:11 PM EST
Length of Visible Light 11h 14m
Length of Day
10h 21m
Last Quarter, 45% of the Moon is Illuminated
Jan 24
Last Quarter
Jan 30
New
Feb 6
First Quarter
Feb 14
Full
Feb 22
Last Quarter

Hourly Weather History & Observations

Time (EST) Temp. Windchill Dew Point Humidity Pressure Visibility Wind Dir Wind Speed Gust Speed Precip Events Conditions
12:51 AM 23.0 °F 10.6 °F -4.0 °F 31% 30.51 in 10.0 mi NW 13.8 mph 19.6 mph N/A   Scattered Clouds
1:51 AM 21.9 °F 9.8 °F -5.1 °F 30% 30.52 in 10.0 mi NW 12.7 mph 21.9 mph N/A   Partly Cloudy
2:51 AM 19.9 °F 5.7 °F -4.0 °F 35% 30.56 in 10.0 mi NW 16.1 mph 24.2 mph N/A   Clear
3:51 AM 17.1 °F 5.0 °F -2.0 °F 43% 30.58 in 10.0 mi WNW 10.4 mph 17.3 mph N/A   Clear
4:51 AM 16.0 °F 4.4 °F -2.0 °F 45% 30.59 in 10.0 mi NW 9.2 mph 16.1 mph N/A   Clear
5:51 AM 14.0 °F 2.0 °F -2.0 °F 49% 30.60 in 10.0 mi NW 9.2 mph - N/A   Clear
6:51 AM 12.9 °F 3.8 °F -2.0 °F 51% 30.61 in 10.0 mi NW 5.8 mph - N/A   Clear
7:51 AM 12.0 °F 1.5 °F -2.0 °F 53% 30.63 in 9.0 mi NNW 6.9 mph - N/A   Clear
8:51 AM 15.1 °F 6.4 °F -0.9 °F 49% 30.64 in 10.0 mi NNW 5.8 mph - N/A   Clear
9:51 AM 19.0 °F 12.3 °F -2.9 °F 38% 30.65 in 7.0 mi Variable 4.6 mph - N/A   Clear
10:51 AM 21.9 °F 15.7 °F -2.9 °F 34% 30.64 in 10.0 mi NE 4.6 mph - N/A   Clear
11:51 AM 25.0 °F 20.7 °F -4.0 °F 28% 30.62 in 9.0 mi Variable 3.5 mph - N/A   Clear
12:51 PM 28.0 °F 24.2 °F -6.0 °F 23% 30.55 in 10.0 mi Variable 3.5 mph - N/A   Clear
1:51 PM 30.0 °F 26.5 °F -7.1 °F 20% 30.50 in 10.0 mi Variable 3.5 mph - N/A   Clear
2:51 PM 30.9 °F - -9.0 °F 18% 30.46 in 10.0 mi Calm Calm - N/A   Clear
3:51 PM 33.1 °F 28.7 °F -9.0 °F 16% 30.44 in 10.0 mi NNW 4.6 mph - N/A   Clear
4:51 PM 33.1 °F - -9.0 °F 16% 30.42 in 10.0 mi Calm Calm - N/A   Clear
5:51 PM 30.0 °F 26.5 °F -6.0 °F 21% 30.41 in 10.0 mi SSW 3.5 mph - N/A   Clear
6:51 PM 27.0 °F - -2.9 °F 27% 30.41 in 10.0 mi Calm Calm - N/A   Clear
7:51 PM 25.0 °F - -2.9 °F 30% 30.39 in 8.0 mi Calm Calm - N/A   Clear
8:51 PM 25.0 °F 20.7 °F -2.0 °F 31% 30.38 in 10.0 mi South 3.5 mph - N/A   Clear
9:51 PM 24.1 °F 19.7 °F -2.0 °F 32% 30.35 in 10.0 mi South 3.5 mph - N/A   Clear
10:51 PM 21.9 °F 17.2 °F -2.0 °F 35% 30.33 in 10.0 mi South 3.5 mph - N/A   Clear
11:51 PM 21.0 °F - -2.9 °F 35% 30.31 in 10.0 mi Calm Calm - N/A   Clear